EW4266 Weather Reports


time (UTC)temp
C
wind
direction
speed
KPH
gust
KPH
rain 1hr
cm
rain 24hr
cm
rain mn
cm
humidity
%
barometer
mb
20260506214648 6 350 8.0 14.5 0.05 2.79 2.41 1 1007.8
20260506214548 6 336 8.0 14.5 0.05 2.79 2.41 1 1007.8
20260506214341 6 18 4.8 12.9 0.05 2.77 2.39 1 1007.8
20260506214233 6 360 6.4 12.9 0.05 2.77 2.39 1 1007.8
20260506214155 6 360 8.0 12.9 0.05 2.77 2.39 1 1007.8
20260506214038 6 350 8.0 12.9 0.05 2.77 2.39 1 1007.8
20260506213933 6 323 4.8 14.5 0.05 2.77 2.39 1 1007.8
20260506213827 6 355 4.8 14.5 0.05 2.77 2.39 1 1007.8
20260506213748 6 61 6.4 14.5 0.05 2.77 2.39 1 1007.8
20260506213709 6 327 8.0 14.5 0.08 2.77 2.39 1 1007.8
20260506213613 6 338 8.0 16.1 0.08 2.77 2.39 1 1007.8
20260506213516 6 328 8.0 16.1 0.08 2.77 2.39 1 1007.8
20260506213436 6 333 9.7 16.1 0.08 2.77 2.39 1 1007.8
20260506213305 6 331 8.0 17.7 0.08 2.77 2.39 1 1007.8
20260506213138 6 333 8.0 17.7 0.08 2.77 2.39 1 1007.8
20260506213022 6 338 8.0 17.7 0.08 2.77 2.39 1 1007.8
20260506212944 6 360 8.0 17.7 0.08 2.77 2.39 1 1007.8
20260506212905 6 325 9.7 17.7 0.08 2.77 2.39 1 1007.7
20260506212757 6 355 9.7 17.7 0.08 2.77 2.39 1 1007.7
20260506212638 6 355 8.0 17.7 0.10 2.77 2.39 1 1007.7
20260506212545 6 329 11.3 17.7 0.10 2.77 2.39 1 1007.7
20260506212425 6 360 12.9 17.7 0.10 2.77 2.39 1 1007.7
20260506212348 6 333 11.3 17.7 0.10 2.77 2.39 1 1007.7
20260506212251 6 342 9.7 17.7 0.10 2.77 2.39 1 1007.7
20260506212211 6 333 9.7 17.7 0.10 2.77 2.39 1 1007.7
20260506212041 6 348 9.7 16.1 0.10 2.77 2.39 1 1007.7
20260506211935 6 346 11.3 16.1 0.10 2.77 2.39 1 1007.7
20260506211835 6 355 8.0 16.1 0.13 2.77 2.39 1 1007.7
20260506211734 6 5 6.4 16.1 0.13 2.77 2.39 1 1007.6
20260506211616 6 343 8.0 16.1 0.13 2.77 2.39 1 1007.6
20260506211537 6 335 8.0 16.1 0.13 2.77 2.39 1 1007.6
20260506211323 6 342 11.3 17.7 0.13 2.77 2.39 1 1007.6
20260506211224 6 337 11.3 17.7 0.13 2.77 2.39 1 1007.5
20260506211128 6 344 9.7 17.7 0.13 2.77 2.39 1 1007.5
20260506211049 6 5 9.7 17.7 0.13 2.77 2.39 1 1007.5
20260506210830 6 321 8.0 17.7 0.13 2.77 2.39 1 1007.5
20260506210730 6 5 9.7 17.7 0.13 2.77 2.39 1 1007.5
20260506210634 6 345 11.3 17.7 0.13 2.77 2.39 1 1007.4
20260506210557 6 333 11.3 17.7 0.13 2.77 2.39 1 1007.4
20260506210519 6 333 12.9 17.7 0.13 2.77 2.39 1 1007.4
20260506210326 6 355 9.7 19.3 0.10 2.74 2.36 1 1007.4
20260506210227 6 344 8.0 19.3 0.10 2.74 2.36 1 1007.4
20260506210130 6 355 9.7 19.3 0.10 2.74 2.36 1 1007.4
20260506210051 6 345 9.7 19.3 0.10 2.74 2.36 1 1007.4
20260506205921 6 340 6.4 19.3 0.10 3.17 2.36 1 1007.4
20260506205837 6 348 8.0 19.3 0.10 3.17 2.36 1 1007.4
20260506205704 6 36 12.9 19.3 0.10 3.17 2.36 1 1007.5
20260506205625 6 335 12.9 19.3 0.10 3.17 2.36 1 1007.5
20260506205427 6 317 6.4 12.9 0.10 3.17 2.36 1 1007.5
20260506205349 6 19 4.8 12.9 0.10 3.17 2.36 1 1007.5
20260506205253 6 16 4.8 12.9 0.10 3.17 2.36 1 1007.6
20260506205217 6 355 4.8 14.5 0.10 3.17 2.36 1 1007.6
20260506205045 6 355 6.4 14.5 0.10 3.17 2.36 1 1007.6
20260506204946 6 347 6.4 14.5 0.10 3.17 2.36 1 1007.6
20260506204840 6 337 6.4 14.5 0.10 3.17 2.36 1 1007.7
20260506204802 6 344 6.4 14.5 0.10 3.17 2.36 1 1007.7
20260506204704 6 317 4.8 14.5 0.10 3.17 2.36 1 1007.7
20260506204624 6 329 6.4 14.5 0.10 3.17 2.36 1 1007.6
20260506204427 6 347 9.7 14.5 0.08 3.15 2.34 1 1007.6
20260506204327 6 350 8.0 14.5 0.08 3.15 2.34 1 1007.6
20260506204228 6 355 6.4 14.5 0.08 3.15 2.34 1 1007.6
20260506204135 6 332 9.7 14.5 0.08 3.15 2.34 1 1007.6
20260506204039 6 323 11.3 14.5 0.08 3.15 2.34 1 1007.6
20260506203923 6 319 6.4 14.5 0.08 3.15 2.34 1 1007.6
20260506203845 6 313 6.4 12.9 0.08 3.15 2.34 1 1007.6
20260506203805 6 327 6.4 12.9 0.05 3.12 2.31 1 1007.6
20260506203708 6 315 6.4 12.9 0.05 3.12 2.31 1 1007.6
20260506203629 6 304 4.8 12.9 0.08 3.12 2.31 1 1007.7
20260506203434 6 333 8.0 17.7 0.08 3.12 2.31 1 1007.7
20260506203339 6 329 8.0 17.7 0.08 3.12 2.31 1 1007.7
20260506203222 6 340 6.4 17.7 0.08 3.12 2.31 1 1007.7
20260506203145 6 327 6.4 17.7 0.08 3.12 2.31 1 1007.7
20260506203040 6 330 8.0 17.7 0.08 3.12 2.31 1 1007.6
20260506202924 6 360 9.7 19.3 0.08 3.12 2.31 1 1007.6
20260506202826 6 340 11.3 19.3 0.08 3.12 2.31 1 1007.6
20260506202749 6 309 11.3 19.3 0.08 3.12 2.31 1 1007.6
20260506202651 6 333 9.7 19.3 0.05 3.10 2.29 1 1007.6
20260506202612 6 340 9.7 19.3 0.05 3.10 2.29 1 1007.6
20260506202515 6 315 11.3 19.3 0.05 3.10 2.29 1 1007.6
20260506202420 6 313 12.9 19.3 0.05 3.10 2.29 1 1007.6
20260506202340 6 319 12.9 19.3 0.05 3.10 2.29 1 1007.6
20260506202208 6 343 11.3 19.3 0.05 3.10 2.29 1 1007.6
20260506202121 6 344 8.0 19.3 0.05 3.10 2.29 1 1007.6
20260506201931 6 329 8.0 19.3 0.05 3.10 2.29 1 1007.6
20260506201846 6 323 8.0 19.3 0.03 3.07 2.26 1 1007.6
20260506201715 6 336 9.7 19.3 0.03 3.07 2.26 1 1007.7
20260506201636 6 310 11.3 19.3 0.05 3.07 2.26 1 1007.6
20260506201438 6 323 9.7 19.3 0.05 3.07 2.26 1 1007.5
20260506201346 6 327 11.3 19.3 0.05 3.07 2.26 1 1007.5
20260506201227 6 320 11.3 19.3 0.05 3.07 2.26 1 1007.6
20260506201148 6 326 11.3 19.3 0.05 3.07 2.26 1 1007.5
20260506201031 6 311 12.9 19.3 0.05 3.07 2.26 1 1007.5
20260506200953 7 346 11.3 14.5 0.05 3.07 2.26 1 1007.5
20260506200915 7 344 11.3 14.5 0.08 3.07 2.26 1 1007.5
20260506200818 7 5 8.0 14.5 0.08 3.07 2.26 1 1007.5
20260506200739 7 351 8.0 14.5 0.08 3.07 2.26 1 1007.5
20260506200610 7 349 9.7 14.5 0.08 3.07 2.26 1 1007.5
20260506200526 7 342 8.0 14.5 0.08 3.07 2.26 1 1007.4
20260506200335 7 321 8.0 14.5 0.08 3.07 2.26 1 1007.5
20260506200253 7 310 9.7 14.5 0.08 3.07 2.26 1 1007.5
20260506200123 7 328 9.7 14.5 0.10 3.07 2.26 1 1007.4
20260506200044 7 317 9.7 14.5 0.10 3.07 2.26 1 1007.4
20260506195913 7 327 8.0 14.5 0.10 3.23 2.26 1 1007.4
20260506195828 7 319 9.7 14.5 0.10 3.23 2.26 1 1007.4
20260506195638 7 314 8.0 14.5 0.13 3.23 2.26 1 1007.3
20260506195532 7 308 9.7 14.5 0.13 3.23 2.26 1 1007.4
20260506195426 7 333 8.0 14.5 0.13 3.23 2.26 1 1007.3
20260506195346 7 338 8.0 14.5 0.13 3.23 2.26 1 1007.3
20260506195215 7 313 11.3 14.5 0.13 3.23 2.26 1 1007.3
20260506195134 7 321 11.3 14.5 0.13 3.23 2.26 1 1007.3
20260506194945 7 311 9.7 14.5 0.15 3.23 2.26 1 1007.3
20260506194859 7 321 9.7 14.5 0.15 3.23 2.26 1 1007.3
20260506194717 7 336 8.0 16.1 0.15 3.23 2.26 1 1007.2
20260506194617 7 349 6.4 16.1 0.15 3.23 2.26 1 1007.4
20260506194520 7 344 8.0 16.1 0.15 3.23 2.26 1 1007.4
20260506194442 7 316 9.7 16.1 0.15 3.23 2.26 1 1007.4
20260506194311 7 338 8.0 16.1 0.15 3.23 2.26 1 1007.3
20260506194212 7 325 8.0 16.1 0.15 3.23 2.26 1 1007.3
20260506194054 7 312 8.0 16.1 0.15 3.23 2.26 1 1007.3
20260506194015 7 344 11.3 16.1 0.15 3.23 2.26 1 1007.3
20260506193915 7 313 9.7 16.1 0.15 3.23 2.26 1 1007.3
20260506193821 7 322 8.0 16.1 0.15 3.23 2.26 1 1007.3
20260506193742 7 360 6.4 14.5 0.15 3.23 2.26 1 1007.3
20260506193611 7 315 6.4 14.5 0.15 3.20 2.24 1 1007.3
20260506193525 7 335 8.0 14.5 0.15 3.20 2.24 1 1007.4
20260506193335 7 337 9.7 14.5 0.15 3.20 2.24 1 1007.4
20260506193247 7 329 8.0 14.5 0.15 3.20 2.24 1 1007.4
20260506193116 7 298 8.0 14.5 0.15 3.20 2.24 1 1007.3
20260506193016 7 303 11.3 14.5 0.15 3.20 2.24 1 1007.4
20260506192838 7 321 11.3 14.5 0.15 3.20 2.24 1 1007.4
20260506192759 7 311 6.4 14.5 0.15 3.20 2.24 1 1007.3
20260506192523 7 317 6.4 12.9 0.15 3.20 2.24 1 1007.4
20260506192446 7 317 6.4 12.9 0.15 3.20 2.24 1 1007.4
20260506192348 7 312 8.0 12.9 0.15 3.20 2.24 1 1007.4
20260506192228 7 339 8.0 12.9 0.15 3.20 2.24 1 1007.3
20260506192130 7 317 6.4 12.9 0.15 3.20 2.24 1 1007.3
20260506192052 7 319 6.4 9.7 0.15 3.20 2.24 1 1007.3
20260506192013 7 313 4.8 8.0 0.18 3.20 2.24 1 1007.3
20260506191916 7 323 4.8 8.0 0.18 3.20 2.24 1 1007.3
20260506191837 7 326 4.8 8.0 0.18 3.20 2.24 1 1007.2
20260506191705 7 327 4.8 8.0 0.15 3.17 2.21 1 1007.2
20260506191618 7 334 4.8 8.0 0.15 3.17 2.21 1 1007.2
20260506191451 7 349 3.2 8.0 0.15 3.17 2.21 1 1007.2
20260506191351 7 332 3.2 8.0 0.15 3.17 2.21 1 1007.2
20260506191133 6 341 3.2 8.0 0.15 3.17 2.21 1 1007.3
20260506191056 6 37 3.2 8.0 0.15 3.17 2.21 1 1007.3
20260506190939 6 355 3.2 8.0 0.13 3.15 2.18 1 1007.2
20260506190901 6 355 4.8 8.0 0.13 3.15 2.18 1 1007.2
20260506190816 6 355 4.8 8.0 0.13 3.15 2.18 1 1007.3
20260506190625 6 348 6.4 8.0 0.13 3.15 2.18 1 1007.2
20260506190549 6 343 6.4 8.0 0.13 3.15 2.18 1 1007.2
20260506190447 6 333 6.4 8.0 0.13 3.15 2.18 1 1007.3
20260506190408 6 347 4.8 8.0 0.13 3.15 2.18 1 1007.3
20260506190313 6 326 3.2 6.4 0.10 3.12 2.16 1 1007.3
20260506190233 6 346 3.2 6.4 0.10 3.12 2.16 1 1007.3
20260506185936 6 350 3.2 8.0 0.10 3.15 2.16 1 1007.3
20260506185830 6 350 4.8 8.0 0.10 3.15 2.16 1 1007.2
20260506185750 6 11 3.2 8.0 0.10 3.15 2.16 1 1007.2
20260506185620 6 16 3.2 8.0 0.08 3.12 2.13 1 1007.3
20260506185534 6 13 4.8 8.0 0.08 3.12 2.13 1 1007.5
20260506185348 6 348 4.8 8.0 0.08 3.12 2.13 1 1007.5
20260506185241 6 342 4.8 8.0 0.08 3.12 2.13 1 1007.5
20260506185115 6 5 4.8 8.0 0.05 3.10 2.11 1 1007.5
20260506185047 6 11 3.2 12.9 0.05 3.10 2.11 1 1007.5
20260506185009 6 360 3.2 12.9 0.05 3.10 2.11 1 1007.6
20260506184822 6 331 4.8 12.9 0.05 3.10 2.11 1 1007.6
20260506184743 6 331 6.4 12.9 0.05 3.10 2.11 1 1007.6
20260506184626 6 314 6.4 16.1 0.05 3.10 2.11 1 1007.5
20260506184549 6 327 4.8 16.1 0.05 3.10 2.11 1 1007.5
20260506184514 6 334 6.4 16.1 0.08 3.10 2.11 1 1007.5
20260506184336 6 321 6.4 16.1 0.08 3.10 2.11 1 1007.5
20260506184247 6 347 6.4 16.1 0.08 3.10 2.11 1 1007.5
20260506184129 6 355 8.0 16.1 0.08 3.10 2.11 1 1007.5
20260506184051 6 334 8.0 16.1 0.08 3.10 2.11 1 1007.5
20260506184012 6 336 9.7 16.1 0.08 3.10 2.11 1 1007.5
20260506183814 6 360 9.7 16.1 0.08 3.10 2.11 1 1007.5
20260506183740 6 333 9.7 16.1 0.05 3.07 2.08 1 1007.5
20260506183528 6 344 6.4 14.5 0.08 3.07 2.08 1 1007.6
20260506183427 6 321 6.4 14.5 0.08 3.07 2.08 1 1007.6
20260506183349 6 327 4.8 12.9 0.08 3.07 2.08 1 1007.6
20260506183223 6 347 8.0 12.9 0.08 3.07 2.08 1 1007.6
20260506183140 6 313 8.0 12.9 0.08 3.07 2.08 1 1007.6
20260506183040 6 334 6.4 12.9 0.08 3.07 2.08 1 1007.6
20260506182935 6 337 6.4 12.9 0.08 3.07 2.08 1 1007.6
20260506182858 6 344 6.4 14.5 0.08 3.07 2.08 1 1007.6
20260506182823 6 334 6.4 14.5 0.10 3.07 2.08 1 1007.7
20260506182655 6 337 8.0 16.1 0.10 3.07 2.08 1 1007.6
20260506182556 6 338 8.0 16.1 0.10 3.07 2.08 1 1007.6
20260506182517 6 321 8.0 16.1 0.10 3.07 2.08 1 1007.6
20260506182421 6 326 6.4 16.1 0.13 3.07 2.08 1 1007.7
20260506182342 6 355 6.4 16.1 0.13 3.07 2.08 1 1007.7
20260506182212 6 314 9.7 16.1 0.13 3.07 2.08 1 1007.8
20260506182127 6 319 9.7 16.1 0.10 3.05 2.06 1 1007.7
20260506181956 6 343 11.3 16.1 0.10 3.05 2.06 1 1007.7
20260506181857 6 323 9.7 16.1 0.10 3.05 2.06 1 1007.7
20260506181759 6 343 8.0 16.1 0.13 3.05 2.06 1 1007.6
20260506181720 6 342 6.4 16.1 0.13 3.05 2.06 1 1007.6
20260506181523 6 18 9.7 17.7 0.13 3.05 2.06 1 1007.6
20260506181447 6 342 9.7 17.7 0.13 3.05 2.06 1 1007.6
20260506181318 6 360 9.7 17.7 0.13 3.05 2.06 1 1007.7
20260506181238 6 342 11.3 17.7 0.13 3.05 2.06 1 1007.8
20260506181039 6 335 8.0 17.7 0.15 3.05 2.06 1 1007.8
20260506181001 6 317 9.7 17.7 0.15 3.05 2.06 1 1007.8
20260506180843 6 327 11.3 17.7 0.15 3.05 2.06 1 1007.9
20260506180744 6 330 11.3 17.7 0.15 3.05 2.06 1 1007.9
20260506180640 6 324 12.9 17.7 0.15 3.05 2.06 1 1007.8
20260506180524 6 342 14.5 17.7 0.15 3.05 2.06 1 1007.8
20260506180450 6 321 14.5 17.7 0.15 3.05 2.06 1 1007.8
20260506180411 6 311 12.9 17.7 0.15 3.05 2.06 1 1007.9
20260506180232 6 323 9.7 16.1 0.15 3.05 2.06 1 1007.9
20260506180152 6 336 8.0 16.1 0.15 3.05 2.06 1 1008.0
20260506175933 6 341 9.7 16.1 0.15 3.05 2.06 1 1008.0
20260506175854 6 342 9.7 16.1 0.15 3.05 2.06 1 1008.0
20260506175757 6 327 8.0 16.1 0.18 3.05 2.06 1 1007.9
20260506175637 6 333 8.0 16.1 0.18 3.05 2.06 1 1007.9
20260506175541 6 32 9.7 16.1 0.18 3.05 2.06 1 1007.9
20260506175447 6 343 9.7 16.1 0.18 3.05 2.06 1 1007.9
20260506175409 6 335 9.7 16.1 0.18 3.05 2.06 1 1007.9
20260506175313 6 5 9.7 16.1 0.18 3.05 2.06 1 1007.9
20260506175233 6 355 8.0 16.1 0.18 3.05 2.06 1 1008.0
20260506175037 6 351 6.4 14.5 0.18 3.05 2.06 1 1008.2
20260506174938 6 348 6.4 14.5 0.18 3.05 2.06 1 1008.2
20260506174840 6 338 8.0 16.1 0.18 3.05 2.06 1 1008.2
20260506174742 6 347 9.7 16.1 0.18 3.05 2.06 1 1008.2
20260506174656 6 327 8.0 16.1 0.18 3.05 2.06 1 1008.2
20260506174504 6 321 8.0 16.1 0.15 3.02 2.03 1 1008.2
20260506174428 6 315 6.4 16.1 0.15 3.02 2.03 1 1008.2
20260506174310 6 330 6.4 16.1 0.15 3.02 2.03 1 1008.3
20260506174231 6 324 9.7 16.1 0.15 3.02 2.03 1 1008.3
20260506174042 6 319 8.0 16.1 0.15 3.02 2.03 1 1008.2
20260506173935 6 336 6.4 16.1 0.18 3.02 2.03 1 1008.1
20260506173857 6 321 6.4 16.1 0.18 3.02 2.03 1 1008.1
20260506173748 6 343 8.0 16.1 0.18 3.02 2.03 1 1008.1
20260506173536 6 339 9.7 16.1 0.15 3.00 2.01 1 1008.2
20260506173431 6 346 9.7 16.1 0.15 3.00 2.01 1 1008.2
20260506173357 6 340 8.0 16.1 0.15 3.00 2.01 1 1008.2
20260506173300 6 332 8.0 14.5 0.15 3.00 2.01 1 1008.2
20260506173221 6 319 8.0 14.5 0.15 3.00 2.01 1 1008.2
20260506173049 6 320 6.4 14.5 0.18 3.00 2.01 1 1008.2
20260506172943 6 324 6.4 16.1 0.18 3.00 2.01 1 1008.2
20260506172844 6 311 8.0 16.1 0.15 2.97 1.98 1 1008.3
20260506172726 6 324 6.4 16.1 0.15 2.97 1.98 1 1008.2
20260506172648 6 332 6.4 16.1 0.15 2.97 1.98 1 1008.2
20260506172523 6 323 8.0 16.1 0.15 2.97 1.98 1 1008.2
20260506172430 6 338 9.7 16.1 0.15 2.95 1.96 1 1008.2
20260506172352 6 328 9.7 16.1 0.15 2.95 1.96 1 1008.2
20260506172221 6 324 9.7 16.1 0.15 2.95 1.96 1 1008.3
20260506172135 6 315 9.7 16.1 0.15 2.95 1.96 1 1008.3
20260506171944 6 321 9.7 14.5 0.15 2.95 1.96 1 1008.3
20260506171847 6 348 8.0 14.5 0.13 2.92 1.93 1 1008.3
20260506171740 6 312 6.4 14.5 0.15 2.92 1.93 1 1008.3
20260506171703 6 325 6.4 14.5 0.15 2.92 1.93 1 1008.3
20260506171605 6 335 6.4 14.5 0.15 2.92 1.93 1 1008.3
20260506171526 6 360 6.4 16.1 0.15 2.92 1.93 1 1008.3
20260506171355 6 331 8.0 16.1 0.15 2.92 1.93 1 1008.3
20260506171251 6 319 8.0 16.1 0.18 2.92 1.93 1 1008.2
20260506171059 6 330 8.0 16.1 0.15 2.90 1.91 1 1008.3
20260506171000 6 344 9.7 16.1 0.15 2.90 1.91 1 1008.3
20260506170824 6 355 11.3 16.1 0.15 2.90 1.91 1 1008.2
20260506170738 6 5 11.3 16.1 0.18 2.90 1.91 1 1008.2
20260506170607 6 331 8.0 16.1 0.18 2.90 1.91 1 1008.3
20260506170528 6 332 8.0 16.1 0.18 2.90 1.91 1 1008.3
20260506170329 6 343 6.4 19.3 0.18 2.90 1.91 1 1008.4
20260506170250 6 311 6.4 19.3 0.18 2.90 1.91 1 1008.4
20260506170138 6 5 8.0 19.3 0.18 2.90 1.91 1 1008.3
20260506170022 6 355 9.7 19.3 0.20 2.90 1.91 1 1008.4
20260506165905 6 336 9.7 19.3 0.18 2.87 1.88 1 1008.3
20260506165825 6 355 9.7 19.3 0.18 2.87 1.88 1 1008.2
20260506165628 6 351 12.9 19.3 0.18 2.87 1.88 1 1008.2
20260506165530 6 321 11.3 17.7 0.20 2.87 1.88 1 1008.3
20260506165433 6 355 9.7 16.1 0.20 2.87 1.88 1 1008.3
20260506165356 6 336 11.3 16.1 0.20 2.87 1.88 1 1008.3
20260506165317 6 330 12.9 16.1 0.20 2.87 1.88 1 1008.3
20260506165219 6 347 11.3 16.1 0.20 2.87 1.88 1 1008.3
20260506165123 6 299 8.0 14.5 0.20 2.87 1.88 1 1008.4
20260506164925 6 324 6.4 16.1 0.23 2.87 1.88 1 1008.4
20260506164826 6 344 8.0 17.7 0.23 2.87 1.88 1 1008.4
20260506164729 6 332 9.7 17.7 0.23 2.87 1.88 1 1008.4
20260506164651 6 348 9.7 17.7 0.23 2.87 1.88 1 1008.4
20260506164433 6 347 11.3 17.7 0.25 2.87 1.88 1 1008.5
20260506164333 6 312 11.3 17.7 0.25 2.87 1.88 1 1008.5
20260506164236 6 330 11.3 17.7 0.25 2.87 1.88 1 1008.5
20260506164142 6 327 12.9 17.7 0.25 2.87 1.88 1 1008.5
20260506164114 6 335 12.9 17.7 0.23 2.84 1.85 1 1008.5
20260506163957 6 327 11.3 17.7 0.23 2.84 1.85 1 1008.5
20260506163919 6 319 9.7 14.5 0.25 2.84 1.85 1 1008.5
20260506163819 6 311 8.0 14.5 0.25 2.84 1.85 1 1008.5
20260506163722 6 340 8.0 14.5 0.25 2.84 1.85 1 1008.4
20260506163643 6 338 8.0 14.5 0.25 2.84 1.85 1 1008.4
20260506163513 6 5 8.0 16.1 0.25 2.84 1.85 1 1008.5
20260506163428 6 355 8.0 16.1 0.25 2.84 1.85 1 1008.5
20260506163237 6 329 8.0 16.1 0.28 2.84 1.85 1 1008.5
20260506163153 6 355 9.7 16.1 0.25 2.82 1.83 1 1008.5
20260506163023 6 330 9.7 16.1 0.25 2.82 1.83 1 1008.6
20260506162947 6 5 9.7 16.1 0.25 2.82 1.83 1 1008.6
20260506162816 6 337 8.0 16.1 0.25 2.82 1.83 1 1008.5
20260506162730 6 328 9.7 16.1 0.28 2.82 1.83 1 1008.5
20260506162540 6 311 9.7 14.5 0.28 2.82 1.83 1 1008.6
20260506162456 6 317 9.7 14.5 0.25 2.79 1.80 1 1008.6
20260506162252 6 327 9.7 12.9 0.28 2.79 1.80 1 1008.6
20260506162153 6 342 8.0 12.9 0.28 2.79 1.80 1 1008.6
20260506162038 6 344 6.4 12.9 0.28 2.79 1.80 1 1008.7
20260506161959 6 336 8.0 12.9 0.28 2.79 1.80 1 1008.7
20260506161840 6 311 8.0 12.9 0.25 2.77 1.78 1 1008.7
20260506161746 6 296 6.4 12.9 0.25 2.77 1.78 1 1008.7
20260506161641 6 324 8.0 12.9 0.28 2.77 1.78 1 1008.8
20260506161525 6 355 8.0 12.9 0.28 2.77 1.78 1 1008.8
20260506161446 6 318 6.4 12.9 0.28 2.77 1.78 1 1008.8
20260506161227 6 339 8.0 14.5 0.28 2.74 1.75 1 1008.8
20260506161128 6 322 6.4 14.5 0.28 2.74 1.75 1 1008.9
20260506161031 6 296 6.4 14.5 0.28 2.74 1.75 1 1008.9
20260506160932 6 323 6.4 16.1 0.28 2.74 1.75 1 1008.9
20260506160858 6 315 6.4 16.1 0.28 2.74 1.75 1 1008.9
20260506160801 6 323 6.4 16.1 0.25 2.72 1.73 1 1008.8
20260506160721 6 304 6.4 17.7 0.28 2.72 1.73 1 1008.9
20260506160523 6 335 8.0 17.7 0.28 2.72 1.73 1 1008.9
20260506160424 6 320 8.0 17.7 0.28 2.72 1.73 1 1008.9
20260506160328 6 329 8.0 17.7 0.28 2.72 1.73 1 1008.9
20260506160250 6 351 9.7 17.7 0.28 2.72 1.73 1 1008.9
20260506160211 6 12 9.7 17.7 0.30 2.72 1.73 1 1008.9
20260506160116 6 355 9.7 17.7 0.30 2.72 1.73 1 1008.9
20260506160038 6 350 8.0 17.7 0.28 2.69 1.70 1 1008.9
20260506155904 6 326 11.3 17.7 0.28 2.69 1.70 1 1008.9
20260506155802 6 342 8.0 14.5 0.28 2.69 1.70 1 1008.9
20260506155633 6 336 6.4 17.7 0.28 2.69 1.70 1 1008.9
20260506155533 6 333 8.0 17.7 0.28 2.67 1.68 1 1009.0
20260506155335 6 315 6.4 17.7 0.28 2.67 1.68 1 1009.0
20260506155236 6 355 6.4 17.7 0.28 2.67 1.68 1 1009.0
20260506155140 6 343 6.4 17.7 0.28 2.67 1.68 1 1008.9
20260506155102 6 315 6.4 17.7 0.28 2.67 1.68 1 1008.9
20260506155023 6 360 9.7 17.7 0.28 2.67 1.68 1 1008.8
20260506154828 6 342 11.3 17.7 0.28 2.64 1.65 1 1008.8
20260506154748 6 360 11.3 16.1 0.28 2.64 1.65 1 1008.8
20260506154614 6 360 9.7 16.1 0.28 2.64 1.65 1 1008.9
20260506154539 6 349 6.4 14.5 0.25 2.62 1.63 1 1009.0
20260506154347 6 345 6.4 14.5 0.25 2.62 1.63 1 1009.1
20260506154248 6 341 8.0 14.5 0.28 2.62 1.63 1 1009.2
20260506154129 6 332 6.4 14.5 0.28 2.62 1.63 1 1009.1
20260506154051 6 331 6.4 14.5 0.28 2.62 1.63 1 1009.1
20260506153921 6 338 9.7 14.5 0.25 2.59 1.60 1 1009.0
20260506153836 6 342 8.0 14.5 0.25 2.59 1.60 1 1009.0
20260506153705 6 316 8.0 12.9 0.25 2.59 1.60 1 1009.0
20260506153627 6 355 8.0 12.9 0.28 2.59 1.60 1 1009.0
20260506153435 6 319 4.8 12.9 0.28 2.59 1.60 1 1009.0
20260506153337 6 355 6.4 17.7 0.25 2.57 1.57 1 1009.0
20260506153240 6 355 8.0 17.7 0.25 2.57 1.57 1 1008.9
20260506153201 6 335 8.0 17.7 0.25 2.57 1.57 1 1008.9
20260506153123 6 323 6.4 17.7 0.25 2.57 1.57 1 1008.9
20260506153005 6 315 4.8 17.7 0.25 2.57 1.57 1 1008.9
20260506152926 6 325 4.8 17.7 0.25 2.57 1.57 1 1008.9
20260506152728 6 334 6.4 17.7 0.25 2.54 1.55 1 1008.8
20260506152629 6 329 9.7 17.7 0.25 2.54 1.55 1 1008.9
20260506152532 6 348 9.7 17.7 0.25 2.54 1.55 1 1008.8
20260506152438 6 306 9.7 16.1 0.25 2.54 1.55 1 1008.8
20260506152406 6 329 9.7 16.1 0.25 2.54 1.55 1 1008.8
20260506152308 6 333 9.7 16.1 0.25 2.54 1.55 1 1008.8
20260506152228 6 313 9.7 16.1 0.23 2.51 1.52 1 1008.9
20260506152031 6 319 11.3 16.1 0.23 2.51 1.52 1 1008.9
20260506151942 6 336 9.7 16.1 0.25 2.51 1.52 1 1008.9
20260506151846 6 323 9.7 16.1 0.23 2.49 1.50 1 1009.0
20260506151725 6 334 11.3 16.1 0.23 2.49 1.50 1 1009.0
20260506151628 6 329 9.7 14.5 0.23 2.49 1.50 1 1008.9
20260506151555 6 343 8.0 14.5 0.23 2.49 1.50 1 1008.9
20260506151528 6 305 8.0 14.5 0.23 2.49 1.50 1 1008.9
20260506151331 6 328 6.4 14.5 0.20 2.46 1.47 1 1008.8
20260506151253 6 330 6.4 14.5 0.20 2.46 1.47 1 1008.8
20260506151156 6 319 6.4 16.1 0.23 2.46 1.47 1 1008.8
20260506151037 6 355 6.4 16.1 0.23 2.46 1.47 1 1008.8
20260506150939 6 296 6.4 16.1 0.23 2.46 1.47 1 1008.7
20260506150903 6 334 8.0 16.1 0.23 2.46 1.47 1 1008.7
20260506150824 6 306 9.7 16.1 0.23 2.46 1.47 1 1008.7
20260506150627 6 315 8.0 16.1 0.20 2.44 1.45 1 1008.8
20260506150532 6 355 8.0 16.1 0.20 2.44 1.45 1 1008.8
20260506150436 6 304 9.7 16.1 0.20 2.44 1.45 1 1008.8
20260506150357 6 331 9.7 16.1 0.20 2.44 1.45 1 1008.8
20260506150318 6 343 9.7 16.1 0.20 2.44 1.45 1 1008.8
20260506150140 6 339 8.0 14.5 0.20 2.41 1.42 1 1008.9
20260506150043 6 327 8.0 16.1 0.20 2.41 1.42 1 1008.9
20260506145926 6 333 8.0 16.1 0.20 2.41 1.42 1 1008.9
20260506145848 6 317 9.7 16.1 0.20 2.41 1.42 1 1008.9
20260506145726 6 327 9.7 16.1 0.20 2.41 1.42 1 1008.7
20260506145629 6 327 9.7 16.1 0.20 2.41 1.42 1 1008.7
20260506145551 6 320 9.7 16.1 0.18 2.39 1.40 1 1008.7
20260506145421 6 324 9.7 16.1 0.20 2.39 1.40 1 1008.6
20260506145315 6 334 9.7 16.1 0.20 2.39 1.40 1 1008.6
20260506145134 6 317 8.0 16.1 0.20 2.39 1.40 1 1008.6
20260506145048 6 346 9.7 16.1 0.20 2.39 1.40 1 1008.6
20260506144917 6 338 9.7 17.7 0.23 2.39 1.40 1 1008.6
20260506144839 6 317 9.7 17.7 0.20 2.36 1.37 1 1008.6
20260506144640 6 335 9.7 17.7 0.20 2.36 1.37 1 1008.6
20260506144525 6 325 9.7 17.7 0.20 2.36 1.37 1 1008.6
20260506144425 6 317 11.3 17.7 0.20 2.36 1.37 1 1008.6
20260506144346 6 318 12.9 17.7 0.20 2.36 1.37 1 1008.6
20260506144307 6 336 12.9 17.7 0.18 2.34 1.35 1 1008.6
20260506144149 6 331 11.3 17.7 0.20 2.34 1.35 1 1008.6
20260506144050 6 333 9.7 17.7 0.20 2.34 1.35 1 1008.6
20260506144011 6 318 8.0 12.9 0.20 2.34 1.35 1 1008.5
20260506143913 6 323 6.4 12.9 0.20 2.34 1.35 1 1008.5
20260506143836 6 309 6.4 12.9 0.20 2.34 1.35 1 1008.5
20260506143705 6 304 6.4 12.9 0.18 2.31 1.32 1 1008.6
20260506143619 6 333 8.0 16.1 0.20 2.31 1.32 1 1008.6
20260506143428 6 336 6.4 16.1 0.20 2.31 1.32 1 1008.6
20260506143346 6 305 6.4 16.1 0.20 2.31 1.32 1 1008.6
20260506143214 6 333 4.8 16.1 0.20 2.31 1.32 1 1008.6
20260506143135 6 333 6.4 16.1 0.20 2.31 1.32 1 1008.6
20260506143005 6 319 11.3 16.1 0.20 2.31 1.32 1 1008.6
20260506142838 6 327 9.7 16.1 0.18 2.29 1.30 1 1008.6
20260506142801 6 338 8.0 17.7 0.18 2.29 1.30 1 1008.6
20260506142624 6 342 8.0 17.7 0.20 2.29 1.30 1 1008.5
20260506142540 6 321 8.0 17.7 0.20 2.29 1.30 1 1008.5
20260506142410 6 360 6.4 17.7 0.20 2.29 1.30 1 1008.5
20260506142332 6 348 9.7 17.7 0.20 2.29 1.30 1 1008.5
20260506142128 6 355 11.3 17.7 0.20 2.29 1.30 1 1008.6
20260506142050 6 345 11.3 17.7 0.18 2.26 1.27 1 1008.6
20260506141932 6 338 9.7 17.7 0.18 2.26 1.27 1 1008.6
20260506141856 6 360 8.0 17.7 0.18 2.26 1.27 1 1008.6
20260506141810 6 306 6.4 17.7 0.18 2.26 1.27 1 1008.7
20260506141619 6 313 8.0 17.7 0.18 2.26 1.27 1 1008.6
20260506141520 6 325 9.7 17.7 0.18 2.26 1.27 1 1008.7
20260506141323 6 347 9.7 17.7 0.18 2.26 1.27 1 1008.6
20260506141245 6 336 9.7 16.1 0.18 2.26 1.27 1 1008.6
20260506141132 6 327 9.7 14.5 0.15 2.24 1.24 1 1008.6
20260506141053 6 337 11.3 16.1 0.15 2.24 1.24 1 1008.6
20260506140834 6 346 8.0 19.3 0.15 2.24 1.24 1 1008.6
20260506140736 6 320 8.0 19.3 0.15 2.24 1.24 1 1008.6
20260506140639 6 317 8.0 19.3 0.15 2.24 1.24 1 1008.7
20260506140600 6 313 9.7 19.3 0.18 2.24 1.24 1 1008.7
20260506140422 6 326 9.7 19.3 0.18 2.24 1.24 1 1008.8
20260506140345 6 338 9.7 19.3 0.18 2.24 1.24 1 1008.8
20260506140212 6 342 11.3 19.3 0.15 2.21 1.22 1 1008.6
20260506140127 6 307 11.3 16.1 0.15 2.21 1.22 1 1008.6
20260506135940 6 315 9.7 14.5 0.15 2.21 1.22 1 1008.6
20260506135902 6 340 8.0 14.5 0.15 2.21 1.22 1 1008.6
20260506135816 6 344 8.0 16.1 0.15 2.21 1.22 1 1008.6
20260506135626 6 336 9.7 22.5 0.15 2.21 1.22 1 1008.6
20260506135540 6 332 9.7 22.5 0.13 2.18 1.19 1 1008.8
20260506135409 6 331 9.7 22.5 0.13 2.18 1.19 1 1008.8
20260506135331 6 321 8.0 22.5 0.13 2.18 1.19 1 1008.8
20260506135132 6 325 9.7 22.5 0.15 2.18 1.19 1 1008.7
20260506135056 6 329 11.3 22.5 0.15 2.18 1.19 1 1008.7
20260506134959 6 312 12.9 22.5 0.13 2.16 1.17 1 1008.8
20260506134924 6 327 12.9 22.5 0.13 2.16 1.17 1 1008.8
20260506134729 6 335 8.0 16.1 0.13 2.16 1.17 1 1008.7
20260506134630 6 302 9.7 16.1 0.13 2.16 1.17 1 1008.7
20260506134532 6 287 11.3 16.1 0.13 2.16 1.17 1 1008.8
20260506134454 6 326 11.3 16.1 0.13 2.16 1.17 1 1008.8
20260506134322 6 323 9.7 17.7 0.13 2.13 1.14 1 1008.7
20260506134244 6 317 11.3 17.7 0.13 2.13 1.14 1 1008.8
20260506134044 6 318 8.0 19.3 0.13 2.13 1.14 1 1008.7
20260506133832 6 304 9.7 19.3 0.13 2.13 1.14 1 1008.6
20260506133746 6 304 11.3 19.3 0.13 2.13 1.14 1 1008.6
20260506133538 6 338 11.3 19.3 0.13 2.11 1.12 1 1008.6
20260506133452 6 332 11.3 19.3 0.13 2.11 1.12 1 1008.6
20260506133321 6 304 12.9 19.3 0.13 2.11 1.12 1 1008.5
20260506133241 6 309 12.9 19.3 0.13 2.11 1.12 1 1008.5
20260506133104 6 343 11.3 17.7 0.15 2.11 1.12 1 1008.5
20260506132910 6 360 9.7 17.7 0.18 2.11 1.12 1 1008.5
20260506132832 6 345 9.7 17.7 0.18 2.11 1.12 1 1008.5
20260506132635 7 324 12.9 19.3 0.18 2.08 1.09 1 1008.6
20260506132557 7 314 9.7 19.3 0.18 2.08 1.09 1 1008.6
20260506132500 7 345 8.0 19.3 0.18 2.08 1.09 1 1008.5
20260506132401 7 320 9.7 19.3 0.18 2.08 1.09 1 1008.5
20260506132325 7 342 9.7 19.3 0.20 2.08 1.09 1 1008.5
20260506132204 7 333 9.7 19.3 0.20 2.08 1.09 1 1008.5
20260506132118 7 317 9.7 19.3 0.20 2.08 1.09 1 1008.6
20260506131948 7 337 11.3 20.9 0.20 2.08 1.09 1 1008.6
20260506131848 7 314 12.9 20.9 0.20 2.08 1.09 1 1008.6
20260506131712 7 355 11.3 22.5 0.20 2.08 1.09 1 1008.6
20260506131633 7 324 9.7 22.5 0.20 2.08 1.09 1 1008.6
20260506131513 7 329 11.3 22.5 0.23 2.08 1.09 1 1008.6
20260506131427 7 331 11.3 24.1 0.23 2.08 1.09 1 1008.5
20260506131307 7 336 14.5 24.1 0.23 2.08 1.09 1 1008.6
20260506131228 7 340 16.1 24.1 0.23 2.08 1.09 1 1008.7
20260506131031 7 344 14.5 24.1 0.23 2.08 1.09 1 1008.8
20260506130935 7 323 12.9 24.1 0.23 2.08 1.09 1 1008.8
20260506130838 7 344 11.3 24.1 0.25 2.08 1.09 1 1008.8
20260506130800 7 355 12.9 24.1 0.25 2.08 1.09 1 1008.8
20260506130609 7 355 17.7 24.1 0.25 2.08 1.09 1 1008.8
20260506130524 7 311 14.5 20.9 0.23 2.06 1.07 1 1008.8
20260506130333 7 11 8.0 20.9 0.23 2.06 1.07 1 1008.8
20260506130247 7 355 9.7 20.9 0.23 2.06 1.07 1 1008.8
20260506130117 7 336 12.9 20.9 0.25 2.06 1.07 1 1008.8
20260506130017 7 348 11.3 20.9 0.25 2.06 1.07 1 1008.9
20260506125837 7 339 12.9 20.9 0.25 2.06 1.07 1 1008.9
20260506125804 7 355 12.9 20.9 0.25 2.06 1.07 1 1008.9
20260506125717 7 333 14.5 20.9 0.25 2.06 1.07 1 1008.9
20260506125527 7 315 11.3 17.7 0.28 2.06 1.07 1 1008.9
20260506125441 7 355 9.7 16.1 0.28 2.06 1.07 1 1009.0
20260506125309 7 315 11.3 16.1 0.28 2.06 1.07 1 1009.0
20260506125231 7 317 9.7 16.1 0.25 2.03 1.04 1 1009.0
20260506125033 7 348 8.0 16.1 0.25 2.03 1.04 1 1009.0
20260506124935 7 340 8.0 16.1 0.25 2.03 1.04 1 1009.0
20260506124836 7 355 9.7 16.1 0.25 2.03 1.04 1 1009.1
20260506124742 7 319 8.0 16.1 0.25 2.03 1.04 1 1009.1
20260506124656 7 323 6.4 16.1 0.25 2.03 1.04 1 1009.2
20260506124526 7 337 11.3 17.7 0.25 2.03 1.04 1 1009.0
20260506124426 7 315 12.9 17.7 0.23 2.01 1.02 1 1009.0
20260506124229 7 324 9.7 22.5 0.23 2.01 1.02 1 1008.9
20260506124151 7 316 9.7 22.5 0.23 2.01 1.02 1 1008.9
20260506124033 7 346 9.7 30.6 0.23 2.01 1.02 1 1008.8
20260506123954 7 302 8.0 30.6 0.23 2.01 1.02 1 1009.0
20260506123837 7 314 11.3 30.6 0.23 2.01 1.02 1 1009.0
20260506123756 7 325 12.9 30.6 0.23 2.01 1.02 1 1009.0
20260506123626 7 306 12.9 30.6 0.20 1.98 0.99 1 1008.6
20260506123524 7 338 12.9 30.6 0.20 1.98 0.99 1 1008.2
20260506123332 7 69 20.9 30.6 0.20 1.98 0.99 1 1007.7
20260506123246 7 23 22.5 30.6 0.18 1.96 0.97 1 1007.7
20260506123115 7 69 12.9 25.7 0.15 1.93 0.94 1 1009.1
20260506123036 7 28 9.7 20.9 0.15 1.93 0.94 1 1010.5
20260506122840 7 334 11.3 19.3 0.15 1.93 0.94 1 1010.2
20260506122740 7 272 11.3 19.3 0.13 1.91 0.91 1 1008.9
20260506122623 7 20 11.3 19.3 0.13 1.91 0.91 1 1008.4
20260506122545 7 42 11.3 19.3 0.13 1.91 0.91 1 1009.1
20260506122432 7 42 11.3 19.3 0.15 1.91 0.91 1 1009.7
20260506122354 7 300 9.7 19.3 0.13 1.88 0.89 1 1009.8
20260506122137 7 267 6.4 14.5 0.13 1.88 0.89 1 1009.1
20260506122039 7 288 6.4 14.5 0.13 1.88 0.89 1 1008.7
20260506121942 7 34 6.4 14.5 0.13 1.88 0.89 1 1008.6
20260506121851 7 35 6.4 14.5 0.13 1.88 0.89 1 1008.6
20260506121812 7 26 8.0 14.5 0.13 1.88 0.89 1 1008.9
20260506121715 7 14 8.0 14.5 0.13 1.88 0.89 1 1009.0
20260506121616 7 329 8.0 12.9 0.10 1.85 0.86 1 1009.2
20260506121514 7 342 8.0 12.9 0.10 1.85 0.86 1 1009.2
20260506120808 7 5 4.8 12.9 0.08 1.83 0.84 1 1009.1
20260506120734 7 27 4.8 12.9 0.08 1.83 0.84 1 1009.2
20260506120604 8 40 4.8 12.9 0.08 1.83 0.84 1 1009.4
20260506120519 8 337 3.2 12.9 0.08 1.83 0.84 1 1009.6
20260506120330 8 304 8.0 12.9 0.08 1.83 0.84 1 1009.5
20260506120244 8 300 6.4 12.9 0.05 1.80 0.81 1 1009.5
20260506120114 8 340 4.8 9.7 0.05 1.80 0.81 1 1009.4
20260506120036 8 16 3.2 9.7 0.05 1.80 0.81 1 1009.3
20260506115838 8 10 3.2 9.7 0.05 1.80 0.81 1 1009.6
20260506115738 8 320 4.8 9.7 0.05 1.80 0.81 1 1009.6
20260506115643 8 303 6.4 9.7 0.03 1.78 0.79 1 1009.6
20260506115549 8 315 6.4 9.7 0.03 1.78 0.79 1 1009.5
20260506115511 8 329 6.4 9.7 0.03 1.78 0.79 1 1009.4
20260506115416 8 327 4.8 9.7 0.03 1.78 0.79 1 1009.4
20260506115338 8 355 4.8 9.7 0.03 1.78 0.79 1 1009.4
20260506115207 8 338 3.2 9.7 0.03 1.78 0.79 1 1009.4
20260506115122 8 5 4.8 12.9 0.03 1.78 0.79 1 1009.4
20260506114933 8 340 6.4 14.5 0.03 1.78 0.79 1 1009.4
20260506114848 8 338 6.4 14.5 0.03 1.78 0.79 1 1009.4
20260506114717 8 336 4.8 14.5 0.03 1.78 0.79 1 1009.3
20260506114639 8 360 6.4 14.5 0.03 1.78 0.79 1 1009.4
20260506114426 8 355 8.0 14.5 0.05 1.78 0.79 1 1009.5
20260506114349 8 323 8.0 14.5 0.05 1.78 0.79 1 1009.5
20260506114253 8 348 9.7 14.5 0.05 1.78 0.79 1 1009.5
20260506114215 8 348 8.0 14.5 0.05 1.78 0.79 1 1009.5
20260506114116 8 360 6.4 14.5 0.05 1.78 0.79 1 1009.5
20260506114020 8 337 6.4 12.9 0.05 1.78 0.79 1 1009.5
20260506113942 8 337 6.4 12.9 0.05 1.78 0.79 1 1009.4
20260506113729 8 327 6.4 12.9 0.05 1.78 0.79 1 1009.4
20260506113652 8 327 6.4 12.9 0.05 1.78 0.79 1 1009.5
20260506113532 8 340 6.4 12.9 0.05 1.78 0.79 1 1009.4
20260506113452 8 344 6.4 12.9 0.05 1.78 0.79 1 1009.3
20260506113354 8 343 6.4 12.9 0.05 1.78 0.79 1 1009.3
20260506113318 8 351 4.8 12.9 0.05 1.78 0.79 1 1009.2
20260506113243 8 355 4.8 12.9 0.05 1.78 0.79 1 1009.2
20260506113114 8 340 6.4 12.9 0.05 1.78 0.79 1 1009.2
20260506113029 8 340 6.4 12.9 0.05 1.78 0.79 1 1009.4
20260506112838 8 340 6.4 9.7 0.05 1.78 0.79 1 1009.5
20260506112753 8 328 6.4 9.7 0.05 1.78 0.79 1 1009.5
20260506112600 8 349 4.8 9.7 0.05 1.78 0.79 1 1009.4
20260506112503 8 9 4.8 9.7 0.03 1.75 0.76 1 1009.4
20260506112424 8 360 4.8 8.0 0.03 1.75 0.76 1 1009.4
20260506112224 8 355 4.8 8.0 0.03 1.75 0.76 1 1009.5
20260506112147 8 348 3.2 8.0 0.03 1.75 0.76 1 1009.5
20260506112052 8 338 3.2 8.0 0.03 1.75 0.76 1 1009.6
20260506111957 8 338 3.2 8.0 0.03 1.75 0.76 1 1009.6
20260506111735 8 305 4.8 12.9 0.03 1.75 0.76 1 1009.4
20260506111627 8 351 4.8 12.9 0.03 1.75 0.76 1 1009.3
20260506111456 8 338 3.2 12.9 0.03 1.75 0.76 1 1009.3
20260506111400 8 304 3.2 12.9 0.03 1.75 0.76 1 1009.3
20260506111223 8 307 6.4 12.9 0.03 1.75 0.76 1 1009.2
20260506111146 8 346 6.4 12.9 0.03 1.75 0.76 1 1009.2
20260506111039 8 328 6.4 12.9 0.03 1.75 0.76 1 1009.1
20260506111002 8 322 6.4 12.9 0.03 1.75 0.76 1 1009.1
20260506110906 8 312 3.2 9.7 0.03 1.75 0.76 1 1009.2
20260506110832 8 301 3.2 6.4 0.03 1.75 0.76 1 1009.1
20260506110636 8 317 4.8 6.4 0.03 1.75 0.76 1 1009.1
20260506110539 8 320 3.2 6.4 0.03 1.75 0.76 1 1009.1
20260506110440 8 338 1.6 8.0 0.03 1.75 0.76 1 1009.0
20260506110403 8 355 1.6 8.0 0.03 1.75 0.76 1 1009.0
20260506110325 8 22 3.2 8.0 0.03 1.75 0.76 1 1008.8
20260506110128 8 24 3.2 8.0 0.03 1.75 0.76 1 1008.7
20260506110052 8 26 3.2 8.0 0.03 1.75 0.76 1 1008.7
20260506105955 8 350 4.8 8.0 0.03 1.75 0.76 1 1008.7
20260506105840 8 5 4.8 8.0 0.03 1.75 0.76 1 1008.7
20260506105723 8 5 4.8 8.0 0.03 1.75 0.76 1 1008.7
20260506105655 8 31 4.8 9.7 0.03 1.75 0.76 1 1008.7
20260506105618 8 350 4.8 9.7 0.03 1.75 0.76 1 1008.6
20260506105439 8 13 4.8 9.7 0.03 1.75 0.76 1 1008.7
20260506105342 8 339 3.2 9.7 0.03 1.75 0.76 1 1008.7
20260506105223 8 17 4.8 9.7 0.03 1.75 0.76 1 1008.8
20260506105146 8 350 4.8 9.7 0.03 1.75 0.76 1 1008.8
20260506105100 8 329 4.8 9.7 0.03 1.75 0.76 1 1008.7
20260506104910 8 340 4.8 9.7 0.03 1.75 0.76 1 1008.7
20260506104836 8 355 4.8 9.7 0.03 1.75 0.76 1 1008.7
20260506104639 8 15 4.8 14.5 0.00 1.73 0.74 1 1008.7
20260506104543 8 340 3.2 14.5 0.00 1.73 0.74 1 1008.7
20260506104443 8 360 6.4 14.5 0.00 1.73 0.74 1 1008.8
20260506104345 8 355 6.4 14.5 0.00 1.73 0.74 1 1008.8
20260506104307 8 319 6.4 14.5 0.03 1.73 0.74 1 1008.9
20260506104211 8 339 6.4 14.5 0.03 1.73 0.74 1 1008.8
20260506104134 8 340 6.4 14.5 0.03 1.73 0.74 1 1008.8
20260506103936 8 324 9.7 14.5 0.05 1.73 0.74 1 1008.8
20260506103843 8 317 8.0 14.5 0.05 1.73 0.74 1 1008.8
20260506103724 8 329 9.7 16.1 0.10 1.73 0.74 1 1008.9
20260506103648 8 325 9.7 16.1 0.10 1.73 0.74 1 1008.9
20260506103523 8 309 4.8 16.1 0.10 1.73 0.74 1 1008.9
20260506103427 8 327 4.8 16.1 0.10 1.73 0.74 1 1008.9
20260506103328 8 335 6.4 16.1 0.10 1.73 0.74 1 1008.9
20260506103251 8 324 6.4 16.1 0.10 1.73 0.74 1 1008.9
20260506103153 8 326 6.4 16.1 0.10 1.73 0.74 1 1008.8
20260506103116 8 5 4.8 16.1 0.10 1.73 0.74 1 1008.8
20260506102924 8 5 9.7 16.1 0.10 1.73 0.74 1 1008.8
20260506102827 8 338 8.0 16.1 0.10 1.73 0.74 1 1008.8
20260506102730 8 329 6.4 12.9 0.10 1.73 0.74 1 1008.8
20260506102654 8 325 8.0 12.9 0.10 1.73 0.74 1 1008.8
20260506102616 8 323 8.0 12.9 0.10 1.73 0.74 1 1008.8
20260506102531 8 333 8.0 9.7 0.10 1.73 0.74 1 1008.8
20260506102430 8 329 8.0 9.7 0.10 1.73 0.74 1 1008.8
20260506102229 9 332 6.4 12.9 0.10 1.73 0.74 1 1008.6
20260506102122 9 339 6.4 12.9 0.10 1.73 0.74 1 1008.5
20260506102050 9 340 6.4 12.9 0.10 1.73 0.74 1 1008.5
20260506101933 9 329 6.4 12.9 0.10 1.73 0.74 1 1008.5
20260506101855 9 355 6.4 12.9 0.10 1.73 0.74 1 1008.4
20260506101736 9 338 6.4 12.9 0.10 1.73 0.74 1 1008.5
20260506101658 9 355 8.0 12.9 0.10 1.73 0.74 1 1008.5
20260506101621 9 342 8.0 12.9 0.10 1.73 0.74 1 1008.6
20260506101434 9 320 8.0 14.5 0.10 1.73 0.74 1 1008.8
20260506101243 9 327 8.0 14.5 0.10 1.73 0.74 1 1008.7
20260506101146 9 336 8.0 14.5 0.10 1.73 0.74 1 1008.6
20260506101109 9 333 8.0 14.5 0.10 1.73 0.74 1 1008.6
20260506101030 9 329 6.4 14.5 0.10 1.73 0.74 1 1008.6
20260506100915 9 334 4.8 16.1 0.13 1.73 0.74 1 1008.5
20260506100830 9 333 4.8 16.1 0.13 1.73 0.74 1 1008.5
20260506100641 9 350 6.4 16.1 0.13 1.73 0.74 1 1008.4
20260506100545 9 344 3.2 16.1 0.13 1.73 0.74 1 1008.3
20260506100353 9 12 6.4 16.1 0.13 1.73 0.74 1 1008.1
20260506100254 9 27 8.0 16.1 0.13 1.73 0.74 1 1008.1
20260506100156 9 25 8.0 16.1 0.13 1.73 0.74 1 1008.3
20260506100057 9 360 6.4 16.1 0.13 1.73 0.74 1 1008.3
20260506100019 9 22 4.8 16.1 0.13 1.73 0.74 1 1008.5
20260506095850 9 355 4.8 12.9 0.13 1.73 0.74 1 1009.0
20260506095723 9 332 4.8 12.9 0.13 1.73 0.74 1 1008.9
20260506095650 9 344 4.8 12.9 0.13 1.73 0.74 1 1008.9
20260506095533 9 355 3.2 12.9 0.13 1.73 0.74 1 1008.7
20260506095455 9 5 3.2 12.9 0.13 1.73 0.74 1 1008.7
20260506095408 9 5 4.8 12.9 0.13 1.73 0.74 1 1008.8
20260506095248 9 350 6.4 12.9 0.13 1.73 0.74 1 1008.9
20260506095149 9 336 6.4 9.7 0.13 1.73 0.74 1 1008.9
20260506095020 9 343 6.4 9.7 0.13 1.73 0.74 1 1008.9
20260506094935 9 333 6.4 9.7 0.13 1.73 0.74 1 1008.7
20260506094805 9 17 6.4 9.7 0.13 1.73 0.74 1 1008.6
20260506094727 10 24 6.4 9.7 0.13 1.73 0.74 1 1008.6
20260506094529 10 29 4.8 9.7 0.13 1.73 0.74 1 1008.8
20260506094457 10 11 4.8 9.7 0.13 1.73 0.74 1 1008.8
20260506094340 10 40 3.2 6.4 0.10 1.70 0.71 1 1008.8
20260506094303 10 77 3.2 6.4 0.10 1.70 0.71 1 1008.8
20260506094157 10 76 4.8 9.7 0.10 1.70 0.71 1 1008.8
20260506094118 10 46 4.8 9.7 0.08 1.68 0.69 1 1008.9
20260506094019 10 54 3.2 12.9 0.08 1.68 0.69 1 1009.1
20260506093824 10 36 3.2 12.9 0.05 1.65 0.66 1 1009.5
20260506093724 10 313 3.2 12.9 0.03 1.63 0.64 1 1009.8
20260506093627 10 246 1.6 12.9 0.03 1.63 0.64 1 1009.8
20260506093550 10 269 1.6 12.9 0.03 1.63 0.64 1 1009.8
20260506093516 10 269 4.8 14.5 0.03 1.63 0.64 1 1009.7
20260506093359 10 269 6.4 14.5 0.03 1.63 0.64 1 1009.6
20260506093321 10 270 8.0 14.5 0.03 1.63 0.64 1 1009.2
20260506093124 10 315 6.4 14.5 0.03 1.63 0.64 1 1008.9
20260506093026 10 344 8.0 14.5 0.03 1.63 0.64 1 1008.8
20260506092940 10 336 6.4 14.5 0.03 1.63 0.64 1 1008.7
20260506092902 10 329 6.4 14.5 0.03 1.63 0.64 1 1008.7
20260506092824 10 313 4.8 14.5 0.03 1.63 0.64 1 1008.6
20260506092636 10 355 6.4 14.5 0.03 1.63 0.64 1 1008.3
20260506092543 10 13 3.2 12.9 0.03 1.63 0.64 1 1008.3
20260506092447 10 42 4.8 12.9 0.03 1.63 0.64 1 1008.5
20260506092328 10 42 4.8 12.9 0.03 1.63 0.64 1 1008.7
20260506092233 10 29 4.8 12.9 0.03 1.63 0.64 1 1008.8
20260506092155 10 22 3.2 12.9 0.03 1.63 0.64 1 1008.8
20260506092026 10 15 4.8 12.9 0.03 1.63 0.64 1 1009.0
20260506091920 10 9 6.4 12.9 0.05 1.63 0.64 1 1009.0
20260506091750 10 319 6.4 12.9 0.05 1.63 0.64 1 1009.0
20260506091651 10 331 6.4 12.9 0.05 1.63 0.64 1 1009.0
20260506091521 10 316 4.8 9.7 0.08 1.63 0.64 1 1008.9
20260506091416 10 327 3.2 9.7 0.08 1.63 0.64 1 1008.8
20260506091230 10 104 3.2 9.7 0.08 1.63 0.64 1 1008.4
20260506091125 10 88 6.4 9.7 0.08 1.63 0.64 1 1008.3
20260506091020 10 73 6.4 11.3 0.05 1.60 0.61 1 1008.6
20260506090953 10 95 4.8 9.7 0.05 1.60 0.61 1 1008.6
20260506090915 10 70 3.2 9.7 0.05 1.60 0.61 1 1009.1
20260506090738 10 306 3.2 9.7 0.05 1.60 0.61 1 1009.6
20260506090641 10 306 6.4 9.7 0.05 1.60 0.61 1 1009.6
20260506090524 10 321 6.4 9.7 0.05 1.60 0.61 1 1009.2
20260506090445 10 336 4.8 8.0 0.05 1.60 0.61 1 1009.0
20260506090231 10 5 4.8 9.7 0.05 1.60 0.61 1 1008.9
20260506090133 10 337 6.4 9.7 0.05 1.60 0.61 1 1009.0
20260506090036 10 338 6.4 9.7 0.05 1.60 0.61 1 1009.0
20260506085958 10 321 4.8 9.7 0.05 1.60 0.61 1 1009.0
20260506085920 10 329 4.8 9.7 0.05 1.60 0.61 1 1009.0
20260506085723 10 41 3.2 9.7 0.05 1.60 0.61 1 1008.7
20260506085647 10 22 3.2 9.7 0.05 1.60 0.61 1 1008.7
20260506085532 10 46 4.8 9.7 0.05 1.60 0.61 1 1008.6
20260506085452 10 30 3.2 8.0 0.05 1.60 0.61 1 1008.5
20260506085358 10 46 3.2 8.0 0.05 1.60 0.61 1 1008.5
20260506085240 10 29 3.2 8.0 0.05 1.60 0.61 1 1008.6
20260506085203 10 28 4.8 8.0 0.05 1.60 0.61 1 1008.6
20260506085118 10 28 4.8 8.0 0.05 1.60 0.61 1 1008.7
20260506084927 10 305 3.2 9.7 0.08 1.60 0.61 1 1008.6
20260506084842 10 327 4.8 9.7 0.08 1.60 0.61 1 1008.6
20260506084742 10 57 4.8 9.7 0.10 1.60 0.61 1 1008.5
20260506084624 10 62 4.8 9.7 0.15 1.60 0.61 1 1008.6
20260506084546 10 58 4.8 9.7 0.15 1.60 0.61 1 1008.6
20260506084434 10 33 6.4 9.7 0.23 1.60 0.61 1 1009.3
20260506084358 10 327 6.4 9.7 0.23 1.60 0.61 1 1009.3
20260506084314 10 327 8.0 9.7 0.23 1.60 0.61 1 1009.4
20260506084124 10 313 6.4 9.7 0.23 1.60 0.61 1 1009.2
20260506084050 10 300 6.4 11.3 0.23 1.60 0.61 1 1009.2
20260506083921 10 325 4.8 8.0 0.23 1.60 0.61 1 1008.8
20260506083842 10 355 3.2 8.0 0.23 1.60 0.61 1 1008.7
20260506083652 10 360 4.8 8.0 0.23 1.60 0.61 1 1008.7
20260506083527 10 355 4.8 8.0 0.23 1.60 0.61 1 1008.7
20260506083425 10 27 4.8 8.0 0.25 1.60 0.61 1 1008.8
20260506083347 10 355 6.4 8.0 0.25 1.60 0.61 1 1008.8
20260506083310 10 341 4.8 8.0 0.25 1.60 0.61 1 1008.8
20260506083200 10 355 3.2 6.4 0.25 1.60 0.61 1 1008.8
20260506083042 10 12 3.2 6.4 0.25 1.60 0.61 1 1008.8
20260506082924 10 18 3.2 6.4 0.25 1.60 0.61 1 1008.9
20260506082848 10 22 3.2 6.4 0.25 1.60 0.61 1 1008.9
20260506082811 10 360 3.2 6.4 0.25 1.60 0.61 1 1008.8
20260506082713 10 24 3.2 6.4 0.25 1.60 0.61 1 1008.9
20260506082635 10 24 1.6 9.7 0.25 1.60 0.61 1 1009.0
20260506082506 10 11 1.6 9.7 0.25 1.60 0.61 1 1009.0
20260506082426 10 11 1.6 9.7 0.25 1.60 0.61 1 1009.0
20260506082235 10 59 1.6 9.7 0.25 1.60 0.61 1 1008.8
20260506082150 10 59 3.2 9.7 0.25 1.60 0.61 1 1008.6
20260506081939 10 59 4.8 9.7 0.23 1.57 0.58 1 1008.7
20260506081854 10 40 4.8 9.7 0.23 1.57 0.58 1 1008.7
20260506081817 10 28 4.8 9.7 0.23 1.57 0.58 1 1008.9
20260506081647 11 350 4.8 9.7 0.20 1.55 0.56 1 1009.5
20260506081548 11 323 4.8 9.7 0.20 1.55 0.56 1 1009.7
20260506081329 11 300 4.8 9.7 0.20 1.55 0.56 1 1009.5
20260506081252 11 292 6.4 9.7 0.20 1.55 0.56 1 1009.5
20260506081200 11 329 4.8 8.0 0.20 1.55 0.56 1 1008.8
20260506081041 11 342 3.2 8.0 0.20 1.55 0.56 1 1008.8
20260506080925 11 5 3.2 8.0 0.20 1.55 0.56 1 1008.8
20260506080847 11 5 3.2 8.0 0.20 1.55 0.56 1 1008.8
20260506080628 11 350 4.8 8.0 0.20 1.55 0.56 1 1008.8
20260506080551 11 16 4.8 8.0 0.20 1.55 0.56 1 1008.8
20260506080435 11 340 4.8 8.0 0.20 1.55 0.56 1 1008.8
20260506080336 11 351 4.8 8.0 0.20 1.55 0.56 1 1008.9
20260506080221 11 355 6.4 8.0 0.20 1.55 0.56 1 1008.9
20260506080144 11 348 4.8 8.0 0.20 1.55 0.56 1 1008.9
20260506080106 11 355 4.8 8.0 0.20 1.55 0.56 1 1009.0
20260506073515 11 343 8.0 9.7 0.03 1.35 0.36 1 1008.3
20260506073337 11 344 6.4 9.7 0.03 1.35 0.36 1 1008.2
20260506073243 11 355 6.4 8.0 0.03 1.35 0.36 1 1008.2
20260506073126 11 355 6.4 8.0 0.03 1.35 0.36 1 1008.4
20260506073048 11 341 6.4 8.0 0.03 1.35 0.36 1 1008.5
20260506072831 11 346 4.8 8.0 0.03 1.35 0.36 1 1008.4
20260506072734 11 343 6.4 8.0 0.03 1.35 0.36 1 1008.4
20260506072625 11 343 4.8 8.0 0.03 1.35 0.36 1 1008.3
20260506072548 11 338 4.8 8.0 0.03 1.35 0.36 1 1008.3
20260506072418 11 355 6.4 8.0 0.03 1.35 0.36 1 1008.5
20260506072334 11 350 6.4 8.0 0.03 1.35 0.36 1 1008.6
20260506072204 11 338 4.8 8.0 0.03 1.35 0.36 1 1008.7
20260506072125 11 342 4.8 8.0 0.03 1.35 0.36 1 1008.7
20260506071928 11 346 4.8 8.0 0.03 1.35 0.36 1 1008.7
20260506071852 11 338 6.4 8.0 0.03 1.35 0.36 1 1008.7
20260506071735 11 324 6.4 8.0 0.03 1.35 0.36 1 1008.6
20260506071656 11 342 4.8 6.4 0.03 1.35 0.36 1 1008.5
20260506071559 11 341 4.8 6.4 0.03 1.35 0.36 1 1008.5
20260506071500 11 329 4.8 6.4 0.03 1.35 0.36 1 1008.3
20260506071342 11 329 4.8 6.4 0.03 1.35 0.36 1 1008.3
20260506071245 11 327 4.8 6.4 0.03 1.35 0.36 1 1008.3
20260506071150 12 329 4.8 6.4 0.03 1.35 0.36 1 1008.3
20260506071112 12 339 4.8 6.4 0.03 1.35 0.36 1 1008.3
20260506071019 12 325 3.2 6.4 0.03 1.35 0.36 1 1008.3
20260506070940 12 325 3.2 4.8 0.03 1.35 0.36 1 1008.3
20260506070810 12 360 0.0 3.2 0.03 1.35 0.36 1 1008.3
20260506070623 12 40 0.0 4.8 0.03 1.35 0.36 1 1008.3
20260506070528 12 40 0.0 6.4 0.03 1.35 0.36 1 1008.3
20260506070428 12 40 0.0 6.4 0.03 1.35 0.36 1 1008.3
20260506070239 12 40 1.6 6.4 0.03 1.35 0.36 1 1008.5
20260506070138 12 40 0.0 6.4 0.03 1.35 0.36 1 1008.5
20260506062427 12 355 3.2 6.4 0.03 1.32 0.33 1 1008.4
20260506062342 12 335 3.2 6.4 0.03 1.32 0.33 1 1008.4
20260506062244 12 347 3.2 6.4 0.03 1.32 0.33 1 1008.4
20260506062149 12 348 3.2 6.4 0.03 1.32 0.33 1 1008.2
20260506062030 12 16 1.6 6.4 0.03 1.32 0.33 1 1008.2
20260506061933 12 11 3.2 6.4 0.03 1.32 0.33 1 1008.3
20260506061855 12 10 3.2 6.4 0.03 1.32 0.33 1 1008.3
20260506061822 12 11 3.2 6.4 0.03 1.32 0.33 1 1008.3
20260506061626 12 5 3.2 6.4 0.03 1.32 0.33 1 1008.2
20260506061529 12 13 3.2 6.4 0.03 1.32 0.33 1 1008.2
20260506061432 12 5 4.8 6.4 0.03 1.32 0.33 1 1008.4
20260506061356 12 5 4.8 6.4 0.03 1.32 0.33 1 1008.4
20260506061319 12 360 4.8 6.4 0.03 1.32 0.33 1 1008.4
20260506061223 12 340 3.2 6.4 0.03 1.32 0.33 1 1008.4
20260506061123 12 340 3.2 6.4 0.03 1.32 0.33 1 1008.4
20260506060935 12 13 0.0 1.6 0.03 1.32 0.33 1 1008.5
20260506060831 12 13 0.0 1.6 0.05 1.32 0.33 1 1008.5
20260506060755 12 13 0.0 1.6 0.05 1.32 0.33 1 1008.5
20260506060639 12 13 0.0 3.2 0.05 1.32 0.33 1 1008.6
20260506060602 12 13 0.0 3.2 0.05 1.32 0.33 1 1008.6
20260506060516 12 13 0.0 3.2 0.05 1.32 0.33 1 1008.5
20260506060345 12 13 0.0 3.2 0.08 1.32 0.33 1 1008.5
20260506060247 12 13 0.0 3.2 0.08 1.32 0.33 1 1008.5
20260506060151 12 13 0.0 3.2 0.10 1.32 0.33 1 1008.4
20260506051400 12 141 0.0 1.6 0.20 1.30 0.30 1 1008.7
20260506051158 12 141 0.0 0.0 0.20 1.30 0.30 1 1008.8
20260506051120 12 141 0.0 0.0 0.20 1.30 0.30 1 1008.7
20260506050922 12 141 0.0 3.2 0.20 1.30 0.30 1 1008.7
20260506050845 12 141 0.0 4.8 0.20 1.30 0.30 1 1008.7
20260506050729 12 141 0.0 6.4 0.18 1.27 0.28 1 1008.8
20260506050650 12 141 0.0 6.4 0.18 1.27 0.28 1 1008.8
20260506050521 12 141 0.0 8.0 0.20 1.27 0.28 1 1008.9
20260506050437 12 141 0.0 8.0 0.20 1.27 0.28 1 1008.9
20260506050309 12 141 0.0 8.0 0.20 1.24 0.25 1 1008.9
20260506050234 12 141 0.0 8.0 0.20 1.22 0.23 1 1009.0
20260506045102 12 128 1.6 4.8 0.15 1.14 0.15 1 1008.9
20260506045025 12 127 1.6 4.8 0.15 1.14 0.15 1 1008.7
20260506044826 12 127 1.6 4.8 0.15 1.14 0.15 1 1008.7
20260506044749 12 127 3.2 4.8 0.15 1.14 0.15 1 1008.7
20260506044654 12 81 3.2 4.8 0.15 1.14 0.15 1 1008.8
20260506044616 12 81 3.2 4.8 0.15 1.14 0.15 1 1008.8
20260506044448 12 81 1.6 4.8 0.15 1.14 0.15 1 1008.5
20260506044349 12 81 0.0 4.8 0.18 1.14 0.15 1 1008.4
20260506044231 12 81 0.0 4.8 0.18 1.14 0.15 1 1008.3
20260506044154 12 81 0.0 4.8 0.18 1.14 0.15 1 1008.3
20260506044120 12 81 0.0 4.8 0.18 1.14 0.15 1 1008.2
20260506044004 12 81 0.0 4.8 0.18 1.14 0.15 1 1008.2
20260506043925 12 81 0.0 4.8 0.18 1.14 0.15 1 1008.3
20260506043736 12 81 1.6 4.8 0.20 1.14 0.15 1 1008.2
20260506043651 12 84 3.2 4.8 0.20 1.14 0.15 1 1008.2
20260506043500 12 5 1.6 4.8 0.20 1.12 0.13 1 1008.0
20260506043422 12 5 1.6 4.8 0.20 1.12 0.13 1 1008.2
20260506043224 12 5 0.0 4.8 0.23 1.12 0.13 1 1008.4
20260506043146 12 5 0.0 4.8 0.23 1.12 0.13 1 1008.3
20260506043038 12 5 1.6 4.8 0.25 1.12 0.13 1 1008.2
20260506042945 12 5 3.2 4.8 0.25 1.12 0.13 1 1008.2
20260506042830 12 5 3.2 4.8 0.25 1.12 0.13 1 1008.0
20260506042752 12 16 1.6 4.8 0.25 1.12 0.13 1 1008.0
20260506042623 12 42 0.0 4.8 0.25 1.12 0.13 1 1008.0
20260506042516 12 58 0.0 4.8 0.28 1.12 0.13 1 1007.9
20260506042326 12 58 1.6 4.8 0.30 1.12 0.13 1 1007.8
20260506042242 12 58 1.6 4.8 0.30 1.12 0.13 1 1007.8
20260506042145 12 74 1.6 6.4 0.28 1.09 0.10 1 1007.8
20260506042030 12 331 0.0 8.0 0.28 1.09 0.10 1 1008.5
20260506041956 12 331 1.6 8.0 0.28 1.09 0.10 1 1008.7
20260506041738 12 331 3.2 8.0 0.28 1.09 0.10 1 1008.6
20260506041700 12 331 3.2 8.0 0.28 1.09 0.10 1 1008.6
20260506041604 12 331 3.2 8.0 0.28 1.09 0.10 1 1008.6
20260506041526 12 331 3.2 8.0 0.28 1.09 0.10 1 1008.5
20260506041329 12 326 3.2 8.0 0.28 1.09 0.10 1 1008.2
20260506041231 12 34 3.2 8.0 0.28 1.09 0.10 1 1008.1
20260506041134 12 5 3.2 8.0 0.30 1.09 0.10 1 1008.0
20260506041058 12 5 4.8 8.0 0.30 1.09 0.10 1 1008.0
20260506041020 12 16 4.8 8.0 0.30 1.09 0.10 1 1007.9
20260506040828 12 54 3.2 8.0 0.30 1.09 0.10 1 1007.9
20260506040729 12 72 1.6 8.0 0.30 1.09 0.10 1 1007.9
20260506040623 12 84 3.2 8.0 0.30 1.09 0.10 1 1007.9
20260506040546 12 73 1.6 8.0 0.28 1.07 0.08 1 1008.0
20260506040326 12 75 3.2 8.0 0.28 1.04 0.05 1 1008.0
20260506040249 12 75 4.8 8.0 0.25 1.02 0.03 1 1008.0
20260506040132 13 70 4.8 8.0 0.30 1.02 0.03 1 1008.1
20260506040056 13 67 3.2 4.8 0.28 0.99 0.00 1 1008.1
20260506040021 13 67 1.6 4.8 0.28 0.99 0.00 1 1008.4
20260506035923 13 65 0.0 3.2 0.30 0.99 0.99 1 1008.8
20260506035825 13 65 0.0 3.2 0.30 0.99 0.99 1 1008.9
20260506035630 13 65 0.0 3.2 0.30 0.99 0.99 1 1008.8
20260506035531 13 65 0.0 3.2 0.30 0.99 0.99 1 1008.8
20260506035434 13 65 0.0 4.8 0.30 0.99 0.99 1 1008.7
20260506035356 13 65 0.0 4.8 0.30 0.99 0.99 1 1008.7
20260506035319 13 65 1.6 9.7 0.30 0.99 0.99 1 1008.6
20260506035122 13 65 1.6 9.7 0.30 0.99 0.99 1 1008.5
20260506035045 13 65 0.0 9.7 0.30 0.99 0.99 1 1008.5
20260506034930 13 65 0.0 9.7 0.33 0.99 0.99 1 1008.5
20260506034855 13 65 0.0 9.7 0.33 0.99 0.99 1 1008.5
20260506034810 13 65 1.6 9.7 0.33 0.99 0.99 1 1008.4
20260506034640 13 75 3.2 9.7 0.33 0.99 0.99 1 1008.4
20260506034541 13 85 3.2 9.7 0.33 0.99 0.99 1 1008.5
20260506034411 13 103 0.0 6.4 0.30 0.97 0.97 1 1008.5
20260506034327 13 60 0.0 6.4 0.30 0.97 0.97 1 1008.5
20260506034137 13 60 0.0 6.4 0.30 0.97 0.97 1 1008.5
20260506034053 13 60 0.0 6.4 0.30 0.97 0.97 1 1008.5
20260506033923 13 60 3.2 6.4 0.30 0.97 0.97 1 1008.4
20260506033845 13 76 4.8 6.4 0.28 0.94 0.94 1 1008.4
20260506033629 13 77 3.2 6.4 0.28 0.94 0.94 1 1008.4
20260506033552 13 82 1.6 6.4 0.25 0.91 0.91 1 1008.4
20260506033435 13 88 4.8 6.4 0.28 0.91 0.91 1 1008.4
20260506033357 13 81 3.2 6.4 0.28 0.91 0.91 1 1008.4
20260506033320 13 85 1.6 6.4 0.25 0.89 0.89 1 1008.4
20260506033123 13 46 0.0 4.8 0.25 0.86 0.86 1 1008.4
20260506033038 13 46 0.0 4.8 0.25 0.86 0.86 1 1008.3
20260506032908 13 46 0.0 4.8 0.25 0.86 0.86 1 1008.3
20260506032830 13 46 0.0 4.8 0.25 0.86 0.86 1 1008.2
20260506032636 13 46 0.0 4.8 0.25 0.86 0.86 1 1008.0
20260506032600 13 46 1.6 4.8 0.25 0.86 0.86 1 1008.0
20260506032423 13 52 1.6 4.8 0.23 0.84 0.84 1 1008.1
20260506032339 13 53 0.0 0.0 0.20 0.81 0.81 1 1008.0
20260506032209 14 78 0.0 0.0 0.20 0.81 0.81 1 1008.1
20260506032131 14 65 0.0 0.0 0.20 0.81 0.81 1 1008.1
20260506031936 14 347 0.0 0.0 0.20 0.81 0.81 1 1008.1
20260506031838 14 347 0.0 0.0 0.20 0.81 0.81 1 1008.1
20260506031724 14 360 0.0 0.0 0.20 0.81 0.81 1 1008.0
20260506031647 14 49 0.0 0.0 0.20 0.81 0.81 1 1008.0
20260506031526 14 86 0.0 0.0 0.20 0.81 0.81 1 1008.0
20260506031429 14 86 0.0 1.6 0.20 0.81 0.81 1 1008.1
20260506031351 14 86 0.0 3.2 0.20 0.81 0.81 1 1008.1
20260506031313 14 86 0.0 4.8 0.20 0.81 0.81 1 1008.1
20260506031136 15 86 0.0 6.4 0.18 0.79 0.79 1 1008.1
20260506031058 15 86 0.0 6.4 0.18 0.79 0.79 1 1008.1
20260506030923 15 86 0.0 6.4 0.18 0.79 0.79 1 1008.1
20260506030845 15 86 0.0 6.4 0.18 0.79 0.79 1 1008.1
20260506030807 15 86 0.0 6.4 0.18 0.79 0.79 1 1008.0
20260506030711 15 86 1.6 6.4 0.18 0.79 0.79 1 1008.0
20260506030634 15 86 1.6 6.4 0.18 0.79 0.79 1 1008.0
20260506030437 15 86 4.8 6.4 0.15 0.76 0.76 1 1007.9
20260506030340 15 86 3.2 6.4 0.15 0.76 0.76 1 1007.9
20260506030224 15 142 1.6 3.2 0.13 0.74 0.74 1 1008.0
20260506030146 15 142 1.6 3.2 0.10 0.71 0.71 1 1008.0
20260506025931 15 142 1.6 6.4 0.08 0.69 0.69 1 1008.1
20260506025855 15 142 1.6 6.4 0.08 0.69 0.69 1 1008.1
20260506025738 15 217 3.2 6.4 0.08 0.69 0.69 1 1008.2
20260506025700 15 260 3.2 6.4 0.08 0.69 0.69 1 1008.2
20260506025615 15 277 1.6 6.4 0.08 0.69 0.69 1 1008.2
20260506025425 15 313 0.0 6.4 0.08 0.69 0.69 1 1008.0
20260506025348 15 313 1.6 6.4 0.08 0.69 0.69 1 1007.9
20260506025229 15 313 3.2 6.4 0.08 0.69 0.69 1 1007.9
20260506025152 15 34 3.2 6.4 0.08 0.69 0.69 1 1007.9
20260506024916 15 267 3.2 6.4 0.05 0.66 0.66 1 1007.9
20260506024851 15 267 3.2 6.4 0.05 0.66 0.66 1 1007.9
20260506024745 15 298 0.0 4.8 0.05 0.66 0.66 1 1007.7
20260506024646 15 336 0.0 6.4 0.05 0.66 0.66 1 1007.7
20260506024517 15 336 0.0 8.0 0.05 0.66 0.66 1 1007.5
20260506024430 15 336 0.0 8.0 0.05 0.66 0.66 1 1007.5
20260506024241 15 336 0.0 9.7 0.05 0.66 0.66 1 1007.5
20260506024203 15 336 1.6 9.7 0.05 0.66 0.66 1 1007.4
20260506023943 16 328 3.2 9.7 0.05 0.66 0.66 1 1007.4
20260506023813 16 34 4.8 9.7 0.05 0.66 0.66 1 1007.4
20260506023734 16 355 6.4 9.7 0.05 0.66 0.66 1 1007.3
20260506023539 16 341 4.8 11.3 0.05 0.66 0.66 1 1007.4
20260506023503 16 355 3.2 11.3 0.03 0.64 0.64 1 1007.4
20260506023406 16 204 3.2 11.3 0.03 0.64 0.64 1 1007.3
20260506023328 16 186 3.2 11.3 0.03 0.64 0.64 1 1007.1
20260506023132 15 228 4.8 11.3 0.00 0.61 0.61 1 1007.2
20260506023033 15 280 4.8 11.3 0.00 0.61 0.61 1 1007.3
20260506022937 15 296 4.8 11.3 0.00 0.61 0.61 1 1007.2
20260506022838 15 304 4.8 11.3 0.00 0.61 0.61 1 1007.1
20260506022708 15 254 3.2 11.3 0.00 0.61 0.61 1 1007.0
20260506022630 15 244 1.6 11.3 0.00 0.61 0.61 1 1007.0
20260506022436 15 277 3.2 11.3 0.00 0.61 0.61 1 1006.9
20260506022400 15 244 3.2 11.3 0.00 0.61 0.61 1 1006.9
20260506022243 15 267 3.2 6.4 0.00 0.61 0.61 1 1006.9
20260506022146 15 275 3.2 4.8 0.00 0.61 0.61 1 1006.9
20260506022031 15 241 3.2 4.8 0.00 0.61 0.61 1 1006.9
20260506021953 15 240 1.6 4.8 0.00 0.61 0.61 1 1006.8
20260506021835 15 220 1.6 4.8 0.00 0.61 0.61 1 1006.8
20260506021758 15 220 0.0 4.8 0.00 0.61 0.61 1 1006.8
20260506021720 15 220 0.0 4.8 0.00 0.61 0.61 1 1006.8
20260506021525 16 220 1.6 4.8 0.00 0.61 0.61 1 1006.8
20260506021447 16 220 0.0 4.8 0.00 0.61 0.61 1 1006.8
20260506021330 16 220 0.0 4.8 0.00 0.61 0.61 1 1006.7
20260506021250 16 220 1.6 4.8 0.00 0.61 0.61 1 1006.7
20260506021122 16 220 1.6 4.8 0.00 0.61 0.61 1 1006.6
20260506021038 16 206 1.6 4.8 0.00 0.61 0.61 1 1006.6
20260506020908 16 223 1.6 4.8 0.00 0.61 0.61 1 1006.5
20260506020831 16 223 1.6 4.8 0.00 0.61 0.61 1 1006.5
20260506020635 16 181 0.0 1.6 0.00 0.61 0.61 1 1006.5
20260506020539 16 181 0.0 3.2 0.00 0.61 0.61 1 1006.4
20260506020442 16 181 0.0 4.8 0.00 0.61 0.61 1 1006.4
20260506020408 16 181 0.0 4.8 0.00 0.61 0.61 1 1006.4
20260506020330 16 181 0.0 4.8 0.00 0.61 0.61 1 1006.4
20260506020132 16 181 0.0 4.8 0.00 0.61 0.61 1 1006.4
20260506020056 16 181 0.0 4.8 0.00 0.61 0.61 1 1006.4
20260506015938 16 181 0.0 4.8 0.00 0.61 0.61 1 1006.5
20260506015901 16 181 0.0 4.8 0.00 0.61 0.61 1 1006.5
20260506015817 16 181 1.6 4.8 0.00 0.61 0.61 1 1006.5
20260506015646 16 207 3.2 4.8 0.00 0.61 0.61 1 1006.5
20260506015548 16 207 3.2 4.8 0.00 0.61 0.61 1 1006.5
20260506015510 16 202 3.2 4.8 0.00 0.61 0.61 1 1006.6
20260506015353 16 202 3.2 4.8 0.00 0.61 0.61 1 1006.6
20260506015320 16 200 3.2 4.8 0.00 0.61 0.61 1 1006.5
20260506015124 16 167 1.6 8.0 0.00 0.61 0.61 1 1006.5
20260506015027 16 178 1.6 8.0 0.00 0.61 0.61 1 1006.5
20260506014931 16 178 1.6 8.0 0.00 0.61 0.61 1 1006.5
20260506014853 16 178 3.2 8.0 0.00 0.61 0.61 1 1006.5
20260506014722 16 178 1.6 8.0 0.00 0.61 0.61 1 1006.5
20260506014615 16 137 1.6 8.0 0.00 0.61 0.61 1 1006.5
20260506014426 16 136 4.8 8.0 0.00 0.61 0.61 1 1006.6
20260506014348 16 151 4.8 8.0 0.00 0.61 0.61 1 1006.7
20260506014232 16 163 6.4 8.0 0.00 0.61 0.61 1 1006.7
20260506014156 16 189 4.8 8.0 0.00 0.61 0.61 1 1006.7
20260506014059 16 132 3.2 8.0 0.00 0.61 0.61 1 1006.7
20260506013923 16 181 3.2 8.0 0.00 0.61 0.61 1 1006.6
20260506013839 16 174 1.6 8.0 0.00 0.61 0.61 1 1006.7
20260506013708 16 144 1.6 8.0 0.00 0.61 0.61 1 1006.7
20260506013630 16 144 3.2 8.0 0.00 0.61 0.61 1 1006.6
20260506013434 16 134 4.8 8.0 0.00 0.61 0.61 1 1006.7
20260506013357 16 144 4.8 8.0 0.00 0.61 0.61 1 1006.7
20260506013240 16 163 4.8 9.7 0.00 0.61 0.61 1 1006.7
20260506013207 16 161 4.8 9.7 0.00 0.61 0.61 1 1006.7
20260506013130 16 154 4.8 9.7 0.00 0.61 0.61 1 1006.6
20260506012932 16 178 4.8 9.7 0.00 0.61 0.61 1 1006.5
20260506012855 16 161 4.8 9.7 0.00 0.61 0.61 1 1006.5
20260506012758 16 167 6.4 9.7 0.00 0.61 0.61 1 1006.6
20260506012720 16 157 6.4 9.7 0.00 0.61 0.61 1 1006.5
20260506012550 16 160 6.4 9.7 0.00 0.61 0.61 1 1006.5
20260506012444 16 154 6.4 9.7 0.00 0.61 0.61 1 1006.5
20260506012315 16 217 4.8 9.7 0.00 0.61 0.61 1 1006.4
20260506012236 16 163 3.2 9.7 0.00 0.61 0.61 1 1006.4
20260506012106 16 196 4.8 9.7 0.00 0.61 0.61 1 1006.4
20260506012022 16 236 6.4 9.7 0.00 0.61 0.61 1 1006.3
20260506011837 16 230 3.2 9.7 0.00 0.61 0.61 1 1006.2
20260506011750 16 232 3.2 6.4 0.00 0.61 0.61 1 1006.2
20260506011621 16 192 4.8 6.4 0.00 0.61 0.61 1 1006.0
20260506011542 16 234 3.2 6.4 0.00 0.61 0.61 1 1005.9
20260506011405 16 247 3.2 6.4 0.00 0.61 0.61 1 1005.8
20260506011327 16 247 3.2 6.4 0.00 0.61 0.61 1 1005.6
20260506011138 16 242 1.6 6.4 0.00 0.61 0.61 1 1005.5
20260506011031 16 215 3.2 6.4 0.00 0.61 0.61 1 1005.6
20260506010955 16 215 3.2 6.4 0.00 0.61 0.61 1 1005.6
20260506010858 16 227 1.6 6.4 0.00 0.61 0.61 1 1005.6
20260506010744 16 209 1.6 6.4 0.00 0.61 0.61 1 1005.6
20260506010648 16 194 3.2 6.4 0.00 0.61 0.61 1 1005.7